Startpagina
METAR-TAF:

METAR-TAF

Vliegvelden :

Lowell, Idaho, Verenigde Staten

breedte: 46-08-39N, lengte: 115-35-47W, hoogte: 480 m

Actueel weer

Dit bericht is 14 minuten geleden gemaakt, om 04:52 UTC
Weinig wind
Temperatuur 10°C
Vochtigheid 76%
Druk 1017 hPa

METAR: KP69 190452Z AUTO 00000KT 10/06 A3003 RMK AO1 SLP166 T01000061

Tijdstip: 22:06 (05:06 UTC)


TAF: ontbreekt

Waarnemingen en weersverwachtingen van meer dan 4000 vliegvelden (METAR en TAF).

De beschikbare stations zijn de gele en rode punten op de kaart.

Ga met uw muis naar het station om de naam te zien.

Klik dan om waarnemingen en weersverwachtingen te zien.

kaart wijzigen: klik op de groene knoppen met een zwart kruis om in te zoomen, op de groene knop met een streepje om uit te zoomen of op de groene pijlen voor aangrenzende kaarten.


METAR-TAF: